Weather History for Buffalo, NY

Change the Weather History Date:

Friday, January 24, 2014

  Actual Average Record
Temperature  
Mean Temperature 10 °F 24 °F  
Max Temperature 18 °F 31 °F 60 °F (1950)
Min Temperature 1 °F 18 °F -11 °F (1963)
Degree Days  
Heating Degree Days 55 41  
Month to date heating degree days 1046 962  
Since 1 July heating degree days 3504 3377  
Cooling Degree Days 0 0  
Month to date cooling degree days 0 0  
Year to date cooling degree days 0 0  
Moisture  
Dew Point 1 °F    
Average Humidity 65    
Maximum Humidity 83    
Minimum Humidity 47    
Precipitation  
Precipitation 0.02 in 0.10 in 1.69 in (1896)
Month to date precipitation 2.73 2.55  
Year to date precipitation 2.73 2.55  
Snow  
Snow 0.50 in 0.80 in 4.90 in (1918)
Month to date snowfall 31.6 20.2  
Since 1 July snowfall 70.1 56.4  
Snow Depth 2.00 in    
Sea Level Pressure  
Sea Level Pressure 30.19 in    
Wind  
Wind Speed 19 mph (SW)    
Max Wind Speed 32 mph    
Max Gust Speed 46 mph    
Visibility 6 miles    
Events Snow    
T = Trace of Precipitation, MM = Missing Value Source: NWS Daily Summary

Daily Weather History Graph

Daily Weather History Graph

Search for Another Location

Airport:

Trip Planner

Search our weather history database for the weather conditions in past years. The results will help you decide how hot, cold, wet, or windy it might be!

Date:

Astronomy

Jan. 24, 2014 Rise Set
Actual Time 7:37 AM EST 5:17 PM EST
Civil Twilight 7:06 AM EST 5:47 PM EST
Nautical Twilight 6:32 AM EST 6:22 PM EST
Astronomical Twilight 5:58 AM EST 6:55 PM EST
Moon 1:00 AM EST (1/24) 11:36 AM EST (1/24)
Length of Visible Light 10h 41m
Length of Day
9h 39m
Last Quarter, 45% of the Moon is Illuminated
Jan 24
Last Quarter
Jan 30
New
Feb 6
First Quarter
Feb 14
Full
Feb 22
Last Quarter

Hourly Weather History & Observations

Time (EST) Temp. Windchill Dew Point Humidity Pressure Visibility Wind Dir Wind Speed Gust Speed Precip Events Conditions
12:54 AM 1.0 °F -14.9 °F -8.0 °F 66% 30.40 in 10.0 mi West 10.4 mph - N/A   Mostly Cloudy
1:54 AM 1.9 °F -12.9 °F -6.0 °F 69% 30.39 in 5.0 mi WSW 9.2 mph - 0.00 in Snow Light Snow
2:54 AM 3.9 °F -8.2 °F -2.9 °F 73% 30.40 in 9.0 mi WSW 6.9 mph - 0.00 in Snow Light Snow
3:19 AM 3.2 °F -13.1 °F -2.2 °F 78% 30.34 in 6.0 mi SW 11.5 mph - 0.00 in Snow Light Snow
3:54 AM 5.0 °F -9.1 °F -0.0 °F 80% 30.39 in 4.0 mi WSW 9.2 mph - 0.00 in Snow Light Snow
4:08 AM 5.0 °F -10.0 °F 1.4 °F 85% 30.33 in 2.0 mi SSW 10.4 mph - 0.00 in Snow Light Snow
4:16 AM 5.0 °F -10.0 °F 1.4 °F 85% 30.33 in 1.2 mi SW 10.4 mph - 0.00 in Snow Light Snow
4:23 AM 6.8 °F -5.9 °F 1.4 °F 79% 30.33 in 1.0 mi SW 8.1 mph - 0.01 in Snow Light Snow
4:41 AM 6.8 °F -9.3 °F 1.4 °F 79% 30.33 in 3.0 mi WSW 12.7 mph - 0.01 in Snow Light Snow
4:54 AM 6.1 °F -10.2 °F 1.0 °F 80% 30.38 in 2.5 mi West 12.7 mph - 0.01 in Snow Light Snow
5:02 AM 6.8 °F -9.3 °F -0.4 °F 72% 30.33 in 3.0 mi West 12.7 mph - 0.00 in Snow Light Snow
5:54 AM 6.1 °F -9.5 °F -2.0 °F 69% 30.38 in 9.0 mi WSW 11.5 mph 20.7 mph 0.00 in   Scattered Clouds
6:05 AM 6.8 °F -8.6 °F -2.2 °F 67% 30.32 in 7.0 mi WSW 11.5 mph 19.6 mph N/A   Scattered Clouds
6:17 AM 6.8 °F -8.6 °F -0.4 °F 72% 30.32 in 5.0 mi WSW 11.5 mph - 0.00 in Snow Light Snow
6:41 AM 6.8 °F -8.6 °F 1.4 °F 79% 30.31 in 5.0 mi SW 11.5 mph - 0.00 in Snow Light Snow
6:54 AM 7.0 °F -8.3 °F -0.0 °F 73% 30.37 in 9.0 mi SW 11.5 mph - 0.00 in Snow Light Snow
7:09 AM 6.8 °F -10.0 °F 1.4 °F 79% 30.31 in 9.0 mi WSW 13.8 mph - 0.00 in   Mostly Cloudy
7:37 AM 8.6 °F -8.9 °F 3.2 °F 79% 30.30 in 1.8 mi SW 16.1 mph 20.7 mph 0.00 in Snow Light Snow
7:44 AM 8.6 °F -8.9 °F 3.2 °F 79% 30.29 in 1.0 mi SW 16.1 mph 23.0 mph 0.00 in Snow Light Snow
7:54 AM 8.1 °F -9.0 °F 3.0 °F 80% 30.35 in 0.8 mi SW 15.0 mph 24.2 mph 0.00 in Snow Light Snow
8:01 AM 6.8 °F -11.3 °F 3.2 °F 85% 30.29 in 1.2 mi SW 16.1 mph 24.2 mph 0.00 in Snow Light Snow
8:06 AM 6.8 °F -10.7 °F 3.2 °F 85% 30.29 in 2.0 mi WSW 15.0 mph 24.2 mph 0.00 in Snow Light Snow
8:17 AM 6.8 °F -12.4 °F 1.4 °F 79% 30.28 in 2.5 mi SW 18.4 mph 24.2 mph 0.00 in Snow Light Snow
8:32 AM 6.8 °F -11.3 °F 1.4 °F 79% 30.27 in 4.0 mi SW 16.1 mph - 0.00 in Snow Light Snow
8:48 AM 6.8 °F -11.8 °F 3.2 °F 85% 30.27 in 1.8 mi SW 17.3 mph 25.3 mph 0.00 in Snow Light Snow
8:54 AM 7.0 °F -11.6 °F 1.9 °F 80% 30.33 in 1.8 mi SW 17.3 mph 25.3 mph 0.00 in Snow Light Snow
9:11 AM 6.8 °F -12.4 °F 3.2 °F 85% 30.27 in 2.5 mi SW 18.4 mph 27.6 mph 0.00 in Snow Light Snow
9:18 AM 6.8 °F -12.4 °F 1.4 °F 79% 30.27 in 5.0 mi SW 18.4 mph 27.6 mph 0.00 in Snow Light Snow
9:54 AM 7.0 °F -11.0 °F -0.0 °F 73% 30.31 in 10.0 mi SSW 16.1 mph 24.2 mph 0.00 in Snow Light Snow
10:54 AM 9.0 °F -11.0 °F 1.9 °F 73% 30.27 in 10.0 mi SW 21.9 mph 26.5 mph 0.00 in Snow Light Snow
11:54 AM 10.0 °F -10.8 °F 3.0 °F 73% 30.22 in 4.0 mi SW 25.3 mph 40.3 mph 0.00 in Snow Light Snow
12:26 PM 10.4 °F -9.5 °F 3.2 °F 73% 30.12 in 8.0 mi SW 23.0 mph 29.9 mph 0.00 in   Scattered Clouds
12:51 PM 12.2 °F -7.1 °F 3.2 °F 67% 30.09 in 10.0 mi SW 23.0 mph 33.4 mph 0.00 in   Mostly Cloudy
12:54 PM 12.9 °F -8.6 °F 3.0 °F 65% 30.14 in 10.0 mi SW 31.1 mph 46.0 mph 0.00 in   Mostly Cloudy
1:54 PM 12.9 °F -8.3 °F 1.9 °F 62% 30.09 in 10.0 mi SW 29.9 mph 35.7 mph N/A   Mostly Cloudy
2:54 PM 14.0 °F -3.4 °F 1.0 °F 56% 30.04 in 10.0 mi SW 19.6 mph 31.1 mph N/A   Mostly Cloudy
3:54 PM 15.1 °F -3.7 °F 1.0 °F 54% 30.01 in 10.0 mi SW 24.2 mph 33.4 mph N/A   Mostly Cloudy
4:54 PM 15.1 °F -3.3 °F -0.9 °F 49% 29.96 in 9.0 mi SSW 23.0 mph 32.2 mph N/A   Mostly Cloudy
5:54 PM 14.0 °F -3.4 °F -0.9 °F 52% 29.91 in 10.0 mi SSW 19.6 mph 31.1 mph N/A   Mostly Cloudy
6:54 PM 14.0 °F -3.4 °F -0.9 °F 52% 29.86 in 10.0 mi SSW 19.6 mph 32.2 mph N/A   Mostly Cloudy
7:54 PM 15.1 °F -3.7 °F -0.0 °F 51% 29.83 in 9.0 mi SSW 24.2 mph 31.1 mph 0.00 in   Overcast
8:54 PM 16.0 °F -2.1 °F -0.0 °F 49% 29.79 in 9.0 mi SW 23.0 mph 34.5 mph 0.00 in   Overcast
9:54 PM 17.1 °F -0.3 °F -0.0 °F 47% 29.75 in 10.0 mi SSW 21.9 mph 31.1 mph N/A   Overcast
10:54 PM 17.1 °F -0.6 °F 3.9 °F 56% 29.73 in 7.0 mi SSW 23.0 mph 38.0 mph 0.00 in Snow Light Snow
11:54 PM 17.1 °F 0.6 °F 5.0 °F 59% 29.68 in 9.0 mi SSW 19.6 mph 33.4 mph 0.00 in Snow Light Snow